Location: Munderkingen
(48.2395°N, 9.6433°E)
Time: 11:56:22
(UTC+01:00)

OTV 5 (USA 277) - Visible Passes

Search period start: 19 January 2018 00:00
Search period end: 29 January 2018 00:00
Orbit: 404 x 417 km, 43.0° (Epoch: 07 September)

Date Brightness Start Highest point End Pass type
(mag) Time Alt. Az. Time Alt. Az. Time Alt. Az.
23 Jan ? 19:17:19 10° SSW 19:18:11 13° S 19:18:11 13° S visible
24 Jan ? 18:27:13 10° S 18:28:34 12° SSE 18:29:39 11° SE visible
24 Jan ? 20:02:17 10° SW 20:02:26 11° SW 20:02:26 11° SW visible
25 Jan ? 19:11:30 10° SW 19:13:51 23° S 19:13:51 23° S visible
26 Jan ? 18:20:49 10° SSW 18:23:21 20° SSE 18:25:15 13° ESE visible
26 Jan ? 19:57:06 10° WSW 19:58:01 16° SW 19:58:01 16° SW visible
27 Jan ? 19:06:10 10° WSW 19:09:12 31° S 19:09:24 31° SSE visible
28 Jan ? 18:15:18 10° SW 18:18:15 28° SSE 18:20:46 12° ESE visible
28 Jan ? 19:52:06 10° WSW 19:53:32 20° SW 19:53:32 20° SW visible
